Temperature
18 18 17 16 16 15 15 15 14 14 14 14 14 13 13 13 13 13 13 13 13 12 12 12 12 13 13 13 13 13 13 12 12 13 13 14 14 14 13 12 12 13 14
19 19 17 17 16 16 15 15 14 14 14 13 13 13 12 12 12 13 13 13 12 12 12 12 12 12 12 13 13 13 13 12 13 13 14 14 14 13 13 12 12 13 13
20 20 18 17 16 16 15 15 14 14 14 14 13 12 12 12 12 12 12 12 12 12 13 13 13 13 13 13 13 13 12 12 13 13 14 14 14 13 13 12 12 13 13
20 20 19 17 16 16 15 15 15 15 15 14 13 12 12 12 12 12 12 12 12 12 13 13 14 14 14 13 13 13 13 13 13 13 14 14 14 14 13 12 12 13 14
20 20 19 17 16 16 16 15 15 15 15 14 13 12 12 13 13 13 12 12 12 13 13 14 14 13 13 13 13 13 13 13 14 13 13 14 14 14 13 12 12 13 14
20 20 19 18 17 16 16 15 15 15 15 14 13 13 12 13 14 14 13 13 13 13 13 14 14 14 13 13 13 13 13 14 14 14 14 14 13 13 12 11 12 13 14
20 19 19 18 18 17 16 15 15 15 15 14 13 13 13 13 13 14 13 13 13 14 14 14 14 14 14 14 14 14 14 14 15 15 15 14 14 14 14 12 11 11 12
20 19 18 18 18 17 16 16 16 15 14 14 14 13 14 14 13 14 14 14 14 14 14 14 14 14 14 15 15 15 15 15 15 15 15 15 14 14 14 13 11 11 11
19 19 18 19 18 18 17 17 16 14 14 14 14 14 14 14 14 14 14 14 14 14 14 14 14 14 15 14 14 14 14 14 15 14 14 14 14 14 14 13 12 11 11
19 19 19 19 19 19 18 17 16 15 15 15 15 15 15 15 14 14 14 14 14 14 14 14 14 14 14 14 13 13 13 13 13 13 13 13 13 13 13 13 13 12 11
18 19 19 19 19 19 18 18 17 16 16 15 15 15 16 15 15 15 15 15 15 14 14 14 14 14 13 13 13 13 12 12 12 13 12 13 12 12 12 12 12 12 12
20 19 19 19 19 18 18 17 17 16 16 15 15 15 15 15 15 15 15 14 14 14 13 13 13 13 12 12 12 13 12 12 12 12 12 12 12 12 12 12 12 12 12
21 20 19 19 18 18 18 17 16 16 15 15 15 15 14 15 15 14 14 13 13 13 13 13 12 12 12 12 12 13 13 13 13 12 12 12 12 12 12 12 12 12 12
21 20 19 19 18 17 17 16 16 15 15 15 15 14 14 14 14 13 13 13 12 12 12 12 12 12 12 12 12 13 13 13 13 12 12 12 12 12 11 11 12 12 12
21 20 19 18 17 17 16 16 15 15 14 14 14 13 13 14 13 13 12 12 12 12 12 12 12 12 13 13 13 13 13 13 12 12 11 11 12 12 11 11 12 12 12
21 20 19 18 16 16 15 15 15 14 13 13 13 13 13 13 12 12 12 12 12 12 12 12 12 12 12 12 12 12 12 12 12 11 11 11 11 11 11 11 12 12 12
21 20 18 17 16 15 15 14 14 13 13 13 12 12 12 12 12 12 12 12 12 12 12 12 12 12 12 12 11 11 11 11 11 11 10 10 10 10 11 11 11 11 12
20 19 17 16 15 15 14 14 14 13 13 12 12 12 12 11 11 11 11 12 12 12 12 12 11 11 10 10 10 10 10 10 10 10 10 10 10 10 11 11 11 11 11
18 18 17 16 15 14 14 13 13 13 13 12 12 12 11 11 12 12 12 12 12 11 11 11 10 9 9 9 9 9 9 9 9 9 9 10 10 10 10 10 10 10 10
17 17 16 16 15 14 13 13 12 12 12 12 12 12 12 12 12 12 12 11 11 10 10 9 8 8 7 7 8 9 9 8 8 9 10 10 10 10 10 10 10 10 10
16 16 16 16 15 14 13 12 12 12 12 12 12 12 12 12 12 11 11 10 10 9 8 8 7 7 7 7 7 8 9 8 9 9 9 9 9 9 9 9 9 9 9
15 15 15 15 14 13 13 12 12 12 11 12 12 12 12 11 11 11 10 9 9 8 8 7 7 7 7 6 6 6 6 7 8 7 7 7 7 7 7 7 7 7 7
14 14 14 14 13 13 13 12 12 11 12 12 12 12 11 11 11 10 9 9 8 8 7 6 6 6 6 6 5 4 3 3 3 5 5 5 5 5 5 5 5 5 4
14 13 13 13 13 12 12 12 12 13 12 12 12 11 11 10 10 9 9 8 8 7 6 6 6 5 5 5 5 4 3 2 2 2 2 3 3 3 4 4 4 3 3
13 13 13 13 12 12 12 13 13 13 12 12 11 11 10 10 9 9 8 8 7 6 6 5 5 5 5 4 4 3 3 2 1 0 -0 0 1 2 2 2 2 2 1
13 13 12 12 12 12 12 12 12 12 12 12 11 11 10 9 9 8 8 7 6 6 5 5 4 4 4 3 3 2 1 1 0 -0 -1 -1 -1 -1 -0 -0 0 0 -0
Wind_Speed
5 10 19 17 16 16 16 15 14 12 10 10 9 10 10 9 7 6 5 4 8 9 6 6 7 10 11 7 5 4 3 3 4 5 5 6 5 6 6 10 5 2 5
10 11 18 18 17 15 16 14 14 13 11 10 10 10 8 7 5 6 6 6 8 6 4 6 7 7 6 5 2 2 4 1 3 3 4 5 5 7 8 6 4 3 3
12 13 17 18 17 16 16 14 13 13 11 10 10 9 9 8 7 7 7 7 6 5 3 2 3 3 2 2 1 2 2 0 0 3 4 4 6 9 9 6 5 5 3
13 13 14 18 17 17 17 14 13 12 10 9 8 6 6 7 7 7 8 6 5 4 2 0 0 1 2 3 4 5 4 4 4 5 5 5 7 9 10 9 8 8 6
10 12 13 18 18 18 16 14 12 11 9 9 7 3 2 4 5 9 11 9 8 5 3 2 2 2 3 4 5 6 7 7 6 6 6 7 9 9 9 10 10 10 9
10 11 13 18 17 17 16 14 12 11 9 8 8 5 2 2 3 8 9 11 10 7 4 3 3 4 5 6 7 8 8 8 7 8 9 10 10 11 12 12 12 12 11
9 10 15 17 18 18 15 14 12 11 10 9 8 7 4 5 4 5 9 8 8 5 4 3 5 6 7 9 10 10 10 9 8 8 10 11 11 12 14 14 15 15 14
12 9 12 16 19 17 15 14 13 12 11 10 8 6 5 3 3 4 6 7 6 5 4 5 6 8 9 9 10 10 10 10 10 9 10 11 14 15 16 17 17 16 16
11 9 9 13 15 15 15 14 14 13 12 10 8 6 4 4 2 1 5 6 5 5 5 6 8 10 10 10 10 11 11 12 11 11 11 12 15 17 17 16 17 17 17
9 10 9 9 11 12 12 13 13 12 12 11 9 6 5 4 4 3 3 5 6 7 8 9 9 10 10 11 12 13 14 13 12 12 12 14 17 18 17 17 17 17 18
8 8 10 9 8 10 10 11 12 12 12 11 9 7 5 4 5 5 6 8 9 9 9 9 9 10 11 11 12 14 13 12 11 11 12 17 19 19 18 18 19 19 19
12 10 10 11 9 8 8 9 10 10 10 10 9 7 5 4 4 6 7 9 10 10 9 9 10 11 11 10 11 12 10 11 10 11 12 17 20 22 22 22 21 21 21
11 11 11 10 9 7 5 7 7 8 8 8 8 7 5 3 2 2 2 5 7 6 6 7 7 7 7 6 6 7 9 9 9 11 13 17 19 20 22 22 22 21 21
9 11 13 12 9 7 6 5 5 5 5 5 8 8 6 3 1 1 1 3 2 2 2 4 5 8 9 9 8 7 8 7 8 9 11 15 16 19 20 21 22 22 22
12 11 10 11 10 8 7 6 3 4 4 5 7 8 7 4 3 2 2 4 5 6 5 5 5 6 6 8 8 7 6 8 9 9 11 14 16 18 19 20 20 21 20
12 11 9 10 10 9 7 7 5 4 6 6 6 7 7 6 4 5 6 5 6 7 8 6 4 6 6 7 8 7 6 7 8 9 10 11 15 16 17 18 19 19 20
8 9 10 10 10 11 9 8 5 6 8 7 8 11 12 11 9 6 6 6 5 9 9 7 6 6 7 8 8 9 8 6 7 8 9 10 11 13 16 18 19 22 22
9 8 8 10 11 11 9 8 6 9 10 8 11 13 15 14 11 8 6 5 7 9 6 6 6 6 6 7 8 8 8 7 6 7 8 9 9 9 12 15 19 20 22
8 9 8 10 11 12 11 11 10 10 9 9 12 11 13 13 13 10 5 5 8 6 6 5 4 4 5 8 8 8 8 5 4 6 6 7 8 9 9 11 15 14 17
7 8 9 11 13 15 14 12 11 10 7 8 8 9 13 12 13 10 5 6 6 5 6 5 4 4 3 6 6 8 7 3 3 7 7 6 5 8 8 7 8 10 16
7 8 9 14 15 15 13 11 9 6 5 5 6 11 12 12 12 9 5 5 5 5 5 5 4 4 3 6 5 6 6 3 4 11 8 7 7 8 8 10 9 8 10
8 9 11 14 14 13 10 7 6 5 5 5 5 8 11 12 11 9 6 5 6 5 7 7 5 3 3 5 4 4 5 6 8 11 8 8 9 8 9 10 10 7 8
8 10 12 13 12 12 12 11 9 8 6 4 5 5 7 10 11 10 8 5 6 6 5 5 4 4 3 4 5 5 5 4 9 5 8 7 11 7 10 4 7 7 7
9 9 12 13 13 13 13 12 13 8 6 4 4 5 5 9 10 10 9 7 5 5 4 4 4 3 4 4 3 3 1 4 4 7 6 10 8 9 7 6 7 5 8
9 10 11 12 12 10 11 11 10 7 5 5 6 7 7 6 8 8 8 6 4 4 4 5 5 5 4 3 3 3 3 3 4 6 11 9 11 9 9 6 6 5 6
8 9 10 12 9 10 11 11 11 11 9 9 7 6 5 4 4 5 5 4 4 4 4 5 5 6 5 4 3 3 3 4 6 6 9 13 13 9 8 6 6 6 5
Wind_Direction
182 175 166 169 162 153 150 151 143 137 135 128 123 132 133 117 109 119 129 140 97 85 44 16 19 36 45 65 98 116 138 96 28 15 336 306 287 263 242 246 207 245 251
160 171 160 163 166 162 156 153 146 142 140 138 137 140 143 126 130 138 143 131 103 91 38 354 356 14 35 47 72 174 212 176 31 336 305 298 288 270 257 233 161 204 236
150 165 159 163 168 165 158 156 153 149 146 146 155 156 161 166 150 140 146 140 107 90 60 18 351 343 335 327 281 252 266 322 226 277 292 292 282 268 249 219 225 236 238
152 165 164 167 169 163 159 161 159 156 155 160 174 168 166 169 167 153 148 137 139 142 141 204 296 336 290 278 271 276 290 292 245 260 276 279 287 273 233 223 243 248 241
153 164 166 166 167 164 163 164 162 161 163 168 183 154 143 171 186 171 162 152 158 162 169 216 270 297 303 298 293 293 283 276 250 260 277 284 285 269 233 239 253 258 257
155 160 161 161 163 162 164 165 166 165 169 174 182 164 128 42 179 188 184 165 166 171 194 226 260 281 286 283 283 279 274 271 249 260 278 284 283 270 261 252 249 256 262
156 157 157 159 158 159 164 167 168 167 168 173 178 169 147 63 46 171 186 171 177 186 223 258 286 298 298 290 284 275 268 269 257 256 268 275 276 274 271 267 262 261 264
154 152 160 162 159 163 168 172 172 172 172 173 175 175 167 122 67 155 179 180 200 234 256 282 289 294 297 293 287 283 283 279 266 260 263 269 275 278 274 271 269 266 268
153 149 157 164 167 169 173 176 180 183 176 170 166 172 171 170 156 164 194 203 222 246 265 283 286 286 288 286 284 282 279 274 269 263 265 266 271 276 274 271 271 272 270
164 163 161 168 173 173 176 182 184 181 173 168 164 167 174 195 209 220 200 227 233 245 264 276 278 279 281 282 282 279 277 275 266 260 259 263 271 274 277 279 277 275 273
182 180 171 173 179 179 179 188 183 180 176 175 178 189 185 205 223 224 227 235 230 245 260 269 273 276 279 280 280 281 283 275 271 264 259 263 270 276 279 279 279 277 275
190 193 182 179 184 180 184 184 181 183 181 184 190 200 192 205 220 209 212 230 242 255 269 282 291 293 289 282 283 287 283 278 271 266 261 271 281 284 281 282 281 277 272
188 185 190 185 184 175 175 171 178 184 187 196 199 199 197 194 188 189 239 274 280 290 296 300 305 311 316 319 310 308 303 297 283 272 269 273 284 291 292 294 292 289 285
195 190 183 188 180 174 168 166 172 185 186 199 206 202 183 166 122 357 309 294 299 295 316 355 12 15 14 8 356 337 328 324 314 298 291 289 297 306 307 307 304 297 289
196 195 175 170 170 161 155 146 153 177 175 192 184 179 160 131 116 94 49 44 33 38 49 41 29 18 8 357 352 347 335 332 330 326 317 318 319 323 324 325 325 319 305
190 185 163 155 151 144 141 136 130 143 156 149 133 131 115 108 100 83 65 48 38 44 50 42 32 20 7 356 349 340 326 328 330 329 331 339 340 343 351 357 358 359 3
170 160 157 153 143 138 138 130 126 116 106 95 88 85 81 81 85 79 70 53 32 40 41 36 23 18 13 360 344 332 330 330 331 337 350 352 349 352 359 6 12 9 12
140 142 155 153 142 135 130 118 100 90 93 92 89 87 84 83 87 81 68 51 42 41 34 29 20 10 5 353 333 322 323 331 338 349 351 349 347 354 352 4 4 4 4
144 140 146 146 138 122 108 102 99 95 93 94 89 90 89 87 82 77 67 51 49 41 32 21 12 12 359 344 326 314 312 327 355 360 346 339 344 356 348 353 352 354 1
150 148 138 132 121 115 113 108 100 91 83 86 91 94 91 85 80 77 63 52 49 47 30 18 1 344 352 333 319 308 302 311 22 5 348 337 344 351 343 340 350 347 360
137 139 138 130 129 126 128 124 119 113 97 83 82 88 87 84 78 73 59 47 43 50 36 23 357 343 333 340 329 314 315 321 16 356 351 345 353 347 351 355 348 344 354
140 132 133 132 133 133 131 123 123 120 101 91 81 79 81 79 75 71 66 56 45 39 29 21 19 348 330 360 349 336 338 332 348 336 335 344 347 350 347 342 329 336 352
142 139 138 139 136 132 127 120 111 105 92 80 78 73 70 77 73 69 66 61 50 45 29 10 8 29 346 337 14 43 353 314 319 316 324 334 337 336 326 312 311 320 344
153 142 139 141 138 139 138 138 141 138 135 142 126 104 81 75 73 69 65 60 52 42 28 2 8 9 12 0 358 35 263 270 302 313 318 320 319 318 300 295 301 300 326
145 141 142 140 138 137 133 135 132 122 122 120 112 106 88 71 69 67 65 60 51 37 19 9 7 9 18 5 350 326 321 277 250 278 301 309 312 307 297 287 289 292 297
132 130 135 131 130 132 131 133 135 134 130 126 131 121 109 85 63 55 60 55 41 21 6 358 357 2 3 357 337 320 303 300 307 298 300 305 303 296 287 287 285 285 269
Height
1502 1503 1504 1506 1507 1508 1508 1509 1509 1509 1508 1507 1507 1508 1510 1511 1512 1513 1514 1514 1513 1512 1513 1513 1513 1512 1512 1512 1512 1511 1511 1510 1508 1507 1506 1504 1503 1504 1505 1506 1506 1506 1507
1502 1503 1504 1505 1506 1507 1507 1507 1508 1507 1507 1507 1507 1507 1508 1510 1512 1513 1513 1514 1513 1512 1511 1511 1511 1510 1511 1510 1511 1510 1509 1508 1506 1505 1504 1503 1502 1503 1504 1505 1504 1504 1504
1501 1502 1503 1505 1506 1506 1506 1507 1507 1507 1506 1506 1507 1508 1508 1510 1511 1512 1512 1513 1512 1511 1510 1509 1510 1509 1509 1509 1509 1508 1508 1507 1505 1505 1504 1503 1503 1503 1503 1504 1504 1503 1503
1501 1502 1502 1504 1505 1506 1506 1506 1506 1506 1506 1506 1507 1508 1509 1509 1511 1512 1513 1512 1511 1510 1509 1509 1508 1508 1507 1508 1508 1507 1507 1506 1504 1505 1504 1503 1503 1503 1503 1503 1503 1502 1503
1500 1502 1503 1504 1504 1505 1505 1505 1506 1506 1506 1506 1507 1508 1508 1510 1511 1512 1512 1511 1510 1510 1509 1509 1508 1507 1507 1507 1507 1506 1506 1505 1504 1504 1503 1503 1503 1502 1502 1501 1501 1501 1501
1501 1502 1503 1504 1504 1504 1504 1504 1505 1505 1506 1506 1507 1508 1508 1509 1510 1512 1512 1512 1511 1510 1509 1508 1508 1506 1506 1506 1506 1505 1505 1503 1502 1502 1502 1501 1501 1500 1500 1499 1498 1498 1499
1501 1501 1502 1503 1504 1504 1505 1505 1505 1505 1506 1506 1507 1508 1508 1508 1510 1511 1512 1512 1511 1510 1509 1508 1507 1506 1506 1505 1504 1504 1504 1503 1502 1501 1500 1500 1499 1498 1497 1497 1497 1496 1495
1500 1501 1502 1502 1503 1504 1505 1505 1505 1505 1505 1506 1507 1508 1508 1508 1509 1511 1512 1512 1511 1510 1509 1508 1507 1507 1506 1504 1504 1503 1503 1502 1501 1500 1499 1498 1497 1496 1495 1493 1494 1494 1493
1499 1500 1501 1502 1502 1504 1504 1503 1504 1505 1506 1506 1507 1508 1507 1508 1508 1510 1510 1510 1510 1510 1509 1507 1507 1506 1505 1504 1503 1502 1501 1500 1499 1498 1497 1496 1495 1494 1493 1492 1491 1491 1490
1499 1499 1499 1501 1502 1503 1503 1503 1504 1505 1506 1506 1506 1507 1506 1507 1507 1508 1509 1509 1509 1508 1508 1507 1506 1505 1504 1503 1502 1501 1500 1498 1497 1496 1495 1494 1493 1492 1491 1489 1488 1488 1487
1496 1497 1498 1499 1501 1501 1501 1502 1503 1504 1504 1505 1506 1505 1505 1506 1506 1507 1508 1509 1508 1507 1507 1506 1505 1503 1502 1501 1500 1499 1497 1496 1494 1492 1491 1490 1489 1488 1487 1485 1485 1484 1483
1493 1495 1497 1497 1499 1499 1500 1501 1501 1502 1503 1504 1504 1505 1505 1506 1506 1507 1508 1508 1508 1507 1506 1505 1504 1502 1501 1499 1497 1496 1494 1492 1490 1489 1488 1486 1485 1483 1482 1482 1481 1480 1478
1491 1492 1494 1495 1497 1497 1498 1500 1500 1501 1502 1503 1504 1505 1505 1505 1506 1507 1507 1507 1507 1505 1504 1503 1502 1501 1499 1497 1494 1493 1491 1489 1487 1486 1484 1482 1480 1479 1478 1477 1476 1475 1473
1489 1490 1491 1493 1494 1495 1497 1498 1499 1500 1501 1502 1504 1504 1504 1504 1505 1506 1506 1506 1505 1504 1503 1501 1501 1499 1497 1495 1492 1490 1489 1486 1483 1482 1480 1478 1476 1475 1474 1473 1471 1470 1468
1486 1488 1488 1490 1492 1493 1494 1496 1498 1499 1499 1500 1502 1503 1503 1503 1504 1505 1505 1504 1503 1502 1501 1500 1498 1496 1494 1492 1489 1487 1485 1482 1479 1477 1475 1473 1472 1470 1469 1468 1466 1464 1462
1483 1484 1486 1487 1489 1491 1493 1494 1496 1497 1498 1500 1501 1502 1502 1503 1504 1504 1504 1503 1503 1501 1499 1497 1495 1493 1490 1488 1486 1483 1480 1478 1474 1472 1470 1469 1468 1467 1465 1463 1462 1460 1457
1480 1482 1484 1486 1488 1489 1491 1493 1494 1495 1497 1499 1500 1501 1501 1502 1503 1504 1503 1503 1501 1499 1497 1495 1492 1490 1487 1484 1481 1478 1476 1473 1470 1468 1467 1466 1465 1464 1462 1460 1459 1456 1454
1476 1478 1482 1485 1486 1487 1489 1491 1492 1493 1495 1498 1499 1500 1501 1502 1503 1503 1503 1502 1500 1498 1495 1492 1488 1485 1482 1479 1476 1474 1472 1469 1467 1466 1465 1463 1461 1460 1459 1457 1455 1452 1450
1473 1475 1479 1482 1483 1484 1485 1488 1489 1492 1494 1497 1498 1500 1501 1502 1502 1502 1503 1501 1498 1495 1492 1489 1485 1482 1478 1475 1473 1470 1468 1466 1464 1463 1462 1460 1458 1456 1454 1452 1450 1448 1445
1470 1473 1475 1478 1479 1480 1483 1486 1488 1491 1494 1496 1498 1500 1500 1501 1502 1502 1501 1499 1496 1493 1489 1486 1483 1480 1476 1472 1469 1466 1465 1463 1461 1459 1459 1456 1455 1452 1450 1448 1445 1443 1440
1465 1468 1470 1472 1474 1476 1480 1484 1487 1490 1493 1495 1498 1500 1500 1500 1501 1500 1499 1497 1494 1490 1486 1483 1480 1478 1474 1469 1464 1461 1460 1459 1456 1455 1454 1452 1450 1448 1446 1443 1440 1437 1434
1462 1464 1466 1469 1472 1476 1479 1482 1487 1490 1492 1495 1498 1498 1499 1499 1499 1498 1497 1495 1492 1489 1486 1482 1478 1475 1472 1468 1463 1459 1456 1455 1454 1453 1449 1447 1444 1442 1439 1437 1434 1430 1427
1460 1463 1466 1469 1473 1477 1479 1482 1486 1489 1492 1494 1496 1497 1498 1498 1497 1496 1495 1493 1490 1488 1484 1481 1477 1473 1470 1468 1465 1463 1461 1456 1448 1445 1443 1441 1439 1435 1433 1430 1427 1424 1421
1459 1463 1467 1470 1473 1476 1478 1481 1484 1487 1490 1493 1495 1495 1496 1496 1495 1494 1493 1491 1488 1485 1482 1479 1476 1472 1469 1466 1464 1463 1462 1458 1452 1441 1436 1435 1432 1429 1426 1423 1420 1418 1414
1459 1463 1467 1469 1472 1476 1478 1481 1485 1488 1490 1492 1493 1494 1494 1494 1493 1492 1491 1488 1486 1483 1481 1478 1475 1471 1467 1464 1462 1459 1456 1453 1449 1445 1433 1428 1424 1422 1419 1416 1413 1410 1407
1458 1463 1467 1469 1472 1475 1478 1481 1485 1487 1489 1490 1491 1492 1493 1492 1492 1490 1488 1486 1484 1481 1478 1475 1472 1469 1465 1462 1459 1456 1453 1449 1444 1439 1430 1422 1417 1413 1411 1408 1406 1403 1400